User: anonymous   Login
Location: Caltech
(34.1382°N, 118.1253°W)
Time: 11:36:02
(UTC-07:00)
Language:

BREEZE M DEB (TANK) - Orbit

View from above orbital plane
View from above orbital plane
View from above satellite
View from above satellite

Ground track
Ground track

The orbit data is extracted from the following two-line orbital elements,

1 33437U 08057B   17202.43643356 +.00000619 +00000-0 +11161-3 0  9995
2 33437 049.5316 216.4095 4998860 100.7545 317.1656 05.60432040175762
Epoch (UTC): 21 July 2017 10:28:27
Eccentricity: 0.4998860
inclination: 49.5316°
perigee height: 317 km
apogee height: 13702 km
right ascension of ascending node: 216.4095°
argument of perigee: 100.7545°
revolutions per day: 5.60432040
mean anomaly at epoch: 317.1656°
orbit number at epoch: 17576

The dashed part of the orbit path shows where the satellite is in the earth's shadow,  

DLR